Lexington Weather

Lexington, Massachusetts, USA

68°F
7/3/2020 12:29pm 
  • Lexington Conditions: Overcast
  • Temperature: 67.8°F / 19.9°CColder 1.3°F than last hour.
  • Dew Point: 63.9°FDecreased 1.4°Fsince last hour.
  • Relative Humidity: 87%Decreased 1.0% since last hour.
  • Wind: Wind from N N 2 mph, 10-min avg: 1 mph, gust: 3 mph
  • Barometer: 29.86 in Steady
  • Visibility: 10 miles
  • Rain Today: 0.00 in
  •   

Regional Weather Roundup
for Boston / Norton, MA

        
000
ASUS41 KBOX 300704
RWRBOX

REGIONAL WEATHER ROUNDUP
NATIONAL WEATHER SERVICE BOSTON/NORTON MA
300 AM EDT TUE JUN 30 2020

NOTE:  "FAIR" INDICATES FEW OR NO CLOUDS BELOW 12,000 FEET WITH NO 
SIGNIFICANT WEATHER AND/OR OBSTRUCTIONS TO VISIBILITY.

MAZALL-300800-
EASTERN MASSACHUSETTS
  
CITY           SKY/WX    TMP DP  RH WIND       PRES   REMARKS
BOSTON         CLOUDY    63  61  93 N6        29.88R                  
BEVERLY        LGT RAIN  62  62 100 N5        29.87S FOG              
LAWRENCE       CLOUDY    63  62  97 N6        29.90S FOG              
BEDFORD        CLOUDY    64  62  93 N5        29.87S FOG              
BLUE HILL        N/A     62  62 100 NW3       29.87S                  
NORWOOD        CLOUDY    66  62  87 CALM      29.87S                  
MARSHFIELD     CLOUDY    66  66 100 CALM      29.86R                  
PLYMOUTH       CLOUDY    64  63  96 CALM      29.86S                  
TAUNTON        MOCLDY    66  63  90 CALM      29.86S                  
NEW BEDFORD    CLOUDY    66  65  96 CALM      29.85S                  
$$

MAZALL-300800-
CAPE COD AND THE ISLANDS
  
CITY           SKY/WX    TMP DP  RH WIND       PRES   REMARKS
FALMOUTH       CLOUDY    63  63 100 MISG      29.85S                  
HYANNIS        CLOUDY    68  63  84 CALM      29.84S                  
CHATHAM        CLOUDY    65  61  87 CALM      29.86R                  
PROVINCETOWN   CLOUDY    64  63  96 CALM      29.86S                  
NANTUCKET      CLOUDY    62  61  96 CALM      29.85R                  
MARTHAS VNYRD  CLOUDY    65  64  97 CALM      29.85R                  
$$
 
MAZALL-300800-
CENTRAL AND WESTERN MASSACHUSETTS
  
CITY           SKY/WX    TMP DP  RH WIND       PRES   REMARKS
WORCESTER      CLOUDY    62  61  96 N5        29.89S FOG              
FITCHBURG      CLOUDY    64  61  90 N6        29.89S                  
ORANGE         CLOUDY    64  62  93 N3        29.90S                  
SPRINGFIELD    DRIZZLE   65  65 100 CALM      29.86F                  
WESTFIELD      CLOUDY    65  63  93 N5        29.87F                  
NORTH ADAMS    CLOUDY    64  63  96 CALM      29.90S                  
PITTSFIELD     CLOUDY    63  61  93 CALM      29.89F                  
$$
 
RIZALL-300800-
RHODE ISLAND
  
CITY           SKY/WX    TMP DP  RH WIND       PRES   REMARKS
PROVIDENCE     CLOUDY    67  64  90 NE6       29.87S                  
NEWPORT        MOCLDY    67  63  87 NE3       29.86S                  
BLOCK ISLAND   CLEAR     65  64  97 CALM      29.86F                  
SMITHFIELD     CLOUDY    64  63  96 E3        29.88S                  
WESTERLY       PTCLDY    68  63  84 CALM      29.86F                  
$$
 
CTZALL-300800-
CONNECTICUT
  
CITY           SKY/WX    TMP DP  RH WIND       PRES   REMARKS
BRADLEY INTL   CLOUDY    66  62  87 N6        29.86F                  
HARTFORD       CLOUDY    68  63  84 N5        29.86S                  
BRIDGEPORT     PTCLDY    67  64  90 NW3       29.87S                  
DANBURY        CLOUDY    65  63  93 SW3       29.89F                  
GROTON         CLOUDY    65  64  97 CALM      29.85S                  
NEW HAVEN      PTCLDY    68  65  90 N3        29.86F                  
CHESTER        NOT AVBL                                               
MERIDEN        NOT AVBL                                               
WILLIMANTIC    CLOUDY    66  65  96 CALM      29.87F                  
OXFORD         CLOUDY    63  63 100 NW3       29.90S                  
$$

MEZ002-015-021-024-NHZ003-005-008-011-012-014-VTZ005-008-300800-
NORTHERN NEW ENGLAND
  
CITY           SKY/WX    TMP DP  RH WIND       PRES   REMARKS
PORTLAND ME    CLOUDY    66  62  87 CALM      29.89S                  
BANGOR ME      CLOUDY    65  63  93 N8        29.93R                  
CONCORD NH     CLOUDY    64  62  93 NW3       29.90S                  
MANCHESTER NH  CLOUDY    65  63  93 N6        29.88S FOG              
NASHUA NH      CLOUDY    63  63 100 N6        29.90R FOG              
PORTSMOUTH NH  CLOUDY    64  63  99 NW6       29.87S FOG              
JAFFREY NH     CLOUDY    62  59  90 CALM      29.92S                  
KEENE NH       LGT RAIN  63  62  97 NW3       29.90F                  
BURLINGTON VT  CLOUDY    66  63  90 N7        29.92S                  
MT. WASHINGTON LGT RAIN  46  46 100 NE23        N/A  VSB 1/16         
$$

NYZ052-076-300800-
EASTERN NEW YORK
  
CITY           SKY/WX    TMP DP  RH WIND       PRES   REMARKS
ALBANY         CLOUDY    68  62  81 N3        29.90S                  
NEW YORK CITY  PTCLDY    71  62  73 N7        29.86F                  
$$
 
ANZALL-300800-
MARINE OBSERVATIONS
  
STATION/POSITION TIME  TEMP    WIND        PRES    VSBY  WAVE
                       AIR SEA DIR/SP/G                  HT/PER
                 (UTC) (F)     (DEG/KT/KT) (MB)    (MI)  (FT/S)
BOSTON BUOY      0650   64 66  310/  8/ 10 1010.2S         3/ 5
BUZZARDS BAY     0600          360/  1/  2 1012.1S
NANTUCKET SOUND  0650   65 70   70/  8/ 10 1010.1S         1/ 3
MASS BAY-STELLWA 0604   66      50/ 10/ 12 1008.9F  1 7/8  3/ 5
ISLE OF SHOALS   0600   61      20/ 14/ 15 1011.0F
S OF BLOCK IS    0626      70                N/A           3/ 9
$$

......................KEY.........................
  SKY/WX - SKY CONDITION/PRESENT WEATHER
  TMP    - TEMPERATURE IN FAHRENHEIT
  DWPT   - DEWPOINT IN FAHRENHEIT
  RH     - RELATIVE HUMIDITY IN PERCENT
  WIND   - DIRECTION AND SPEED IN MPH
  PRES   - MEAN SEA LEVEL PRESSURE IN INCHES OF HG
  WCI    - WIND CHILL INDEX
  VSB    - VISIBILITY IN MILES
  HX     - HEAT INDEX
  TC     - TEMPERATURE IN CELSIUS
  VRB    - VARIABLE WIND DIRECTION
  N/A    - NOT AVAILABLE
  
      

Other recent Regional Weather Roundups

Fri Jul 3, 12:04pm

Fri Jul 3, 11:04am

Fri Jul 3, 10:04am

Fri Jul 3, 9:04am

Fri Jul 3, 8:04am

Fri Jul 3, 7:04am

Fri Jul 3, 6:04am

Fri Jul 3, 5:04am

Fri Jul 3, 4:04am

Fri Jul 3, 3:04am

Fri Jul 3, 2:04am

Fri Jul 3, 1:04am

Fri Jul 3, 12:04am

Thu Jul 2, 11:05pm

Thu Jul 2, 10:04pm

Thu Jul 2, 9:04pm

Thu Jul 2, 8:04pm

Thu Jul 2, 7:05pm

Thu Jul 2, 6:04pm

Thu Jul 2, 5:05pm

Thu Jul 2, 4:04pm

Thu Jul 2, 3:04pm

Thu Jul 2, 2:04pm

Thu Jul 2, 1:05pm

Thu Jul 2, 12:04pm

Thu Jul 2, 11:04am

Thu Jul 2, 10:05am

Thu Jul 2, 9:05am

Thu Jul 2, 8:04am

Thu Jul 2, 7:04am

Thu Jul 2, 6:05am

Thu Jul 2, 5:04am

Thu Jul 2, 4:04am

Thu Jul 2, 3:04am

Thu Jul 2, 2:04am

Thu Jul 2, 1:04am

Thu Jul 2, 12:05am

Wed Jul 1, 11:05pm

Wed Jul 1, 10:04pm

Wed Jul 1, 9:04pm

Wed Jul 1, 8:04pm

Wed Jul 1, 7:04pm

Wed Jul 1, 6:04pm

Wed Jul 1, 5:05pm

Wed Jul 1, 4:04pm

Wed Jul 1, 3:04pm

Wed Jul 1, 2:04pm

Wed Jul 1, 1:04pm

Wed Jul 1, 12:04pm

Wed Jul 1, 11:04am

Wed Jul 1, 10:04am

Wed Jul 1, 9:04am

Wed Jul 1, 8:05am

Wed Jul 1, 7:04am

Wed Jul 1, 6:04am

Wed Jul 1, 5:04am

Wed Jul 1, 4:04am

Wed Jul 1, 3:04am

Wed Jul 1, 2:04am

Wed Jul 1, 1:04am

Wed Jul 1, 12:04am

Tue Jun 30, 11:04pm

Tue Jun 30, 10:05pm

Tue Jun 30, 9:04pm

Tue Jun 30, 8:05pm

Tue Jun 30, 7:05pm

Tue Jun 30, 6:04pm

Tue Jun 30, 5:04pm

Tue Jun 30, 4:04pm

Tue Jun 30, 3:04pm

Tue Jun 30, 2:04pm

Tue Jun 30, 1:04pm

Tue Jun 30, 12:04pm

Tue Jun 30, 11:04am

Tue Jun 30, 10:04am

Tue Jun 30, 9:04am

Tue Jun 30, 8:04am

Tue Jun 30, 7:04am

Tue Jun 30, 6:04am

Tue Jun 30, 5:04am

Tue Jun 30, 4:04am

Tue Jun 30, 2:04am

Tue Jun 30, 1:04am

Tue Jun 30, 12:04am

Mon Jun 29, 11:04pm

Mon Jun 29, 10:05pm

Mon Jun 29, 9:04pm

Mon Jun 29, 8:05pm

Mon Jun 29, 7:04pm

Mon Jun 29, 6:04pm

Mon Jun 29, 5:04pm

Mon Jun 29, 4:05pm

Mon Jun 29, 3:04pm

Mon Jun 29, 2:04pm

Mon Jun 29, 1:04pm

Mon Jun 29, 12:04pm

Mon Jun 29, 11:04am

Mon Jun 29, 10:04am

Mon Jun 29, 9:04am

Mon Jun 29, 8:04am

Mon Jun 29, 7:04am

Mon Jun 29, 6:04am

Mon Jun 29, 5:04am

Mon Jun 29, 4:04am

Mon Jun 29, 3:04am

Mon Jun 29, 2:04am

Mon Jun 29, 1:04am

Mon Jun 29, 12:04am

Sun Jun 28, 11:05pm

Sun Jun 28, 10:04pm

Sun Jun 28, 9:05pm

Sun Jun 28, 8:04pm

Sun Jun 28, 7:04pm

Sun Jun 28, 6:04pm

Sun Jun 28, 5:04pm

Sun Jun 28, 4:04pm

Sun Jun 28, 3:04pm

Sun Jun 28, 2:05pm

Sun Jun 28, 1:04pm

Sun Jun 28, 12:04pm

Sun Jun 28, 11:04am

Sun Jun 28, 10:04am

Sun Jun 28, 9:04am

Sun Jun 28, 8:04am

Sun Jun 28, 7:04am

Sun Jun 28, 6:04am

Sun Jun 28, 5:04am

Sun Jun 28, 4:04am

Sun Jun 28, 3:04am

Sun Jun 28, 2:05am

Sun Jun 28, 1:04am

Sun Jun 28, 12:05am

Sat Jun 27, 11:04pm

Sat Jun 27, 10:04pm

Sat Jun 27, 9:04pm

Sat Jun 27, 8:04pm

Sat Jun 27, 7:04pm

Sat Jun 27, 6:04pm

Sat Jun 27, 5:04pm

Sat Jun 27, 4:05pm

Sat Jun 27, 3:04pm

Sat Jun 27, 2:04pm

Sat Jun 27, 1:05pm

Sat Jun 27, 12:04pm

Sat Jun 27, 11:04am

Sat Jun 27, 10:04am

Sat Jun 27, 9:04am

Sat Jun 27, 8:04am

Sat Jun 27, 7:04am

Sat Jun 27, 6:04am

Sat Jun 27, 5:05am

Sat Jun 27, 4:04am

Sat Jun 27, 3:04am

Sat Jun 27, 2:04am

Sat Jun 27, 1:04am

Sat Jun 27, 12:04am

Fri Jun 26, 11:04pm

Fri Jun 26, 10:04pm

Fri Jun 26, 9:05pm

Fri Jun 26, 8:04pm

Fri Jun 26, 7:05pm

Fri Jun 26, 6:04pm

Fri Jun 26, 5:04pm

Fri Jun 26, 4:04pm

Fri Jun 26, 3:04pm

Fri Jun 26, 2:05pm

Fri Jun 26, 1:04pm

Meta data:

ID: 73f700d0-f820-4ca8-996d-370022e865b2
Link: https://api.weather.gov/products/73f700d0-f820-4ca8-996d-370022e865b2